When you browse on this site, cookies collect data to enhance your experience and personalize the content and advertising you see.
Visit our Privacy Policy to learn more. By continuing to use the site, you agree to this use of cookies and data.
  • In Romania
  • List of Countries
  • For 7 days
  • Water Temperature
  • Satellite Maps
  • Weather Map
  • Weather Widgets
  • user-avatar
    Login

    Hourly Weather Wąbrzeźno

    Today, 10 December, Monday

    Time Temperature Precipitation Wind Pressure Humidity
    00:00 +4°C° 0.1 mm 4 mps 736 mmHg 90%
    01:00 +3°C° 0 mm 3 mps 736 mmHg 92%
    02:00 +4°C° 0.1 mm 4 mps 736 mmHg 91%
    03:00 +4°C° 0.1 mm 4 mps 737 mmHg 89%
    04:00 +3°C° 0.1 mm 5 mps 737 mmHg 88%
    05:00 +3°C° 0.2 mm 5 mps 738 mmHg 83%
    06:00 +2°C° 0.2 mm 6 mps 738 mmHg 79%
    07:00 +2°C° 0 mm 6 mps 739 mmHg 74%
    08:00 +2°C° 0 mm 6 mps 740 mmHg 73%
    09:00 +2°C° 0 mm 6 mps 740 mmHg 73%
    10:00 +2°C° 0 mm 6 mps 741 mmHg 72%
    11:00 +2°C° 0 mm 6 mps 741 mmHg 70%
    12:00 +3°C° 0 mm 6 mps 742 mmHg 68%
    13:00 +3°C° 0 mm 6 mps 742 mmHg 65%
    14:00 +2°C° 0.1 mm 6 mps 742 mmHg 68%
    15:00 +2°C° 0.1 mm 5 mps 743 mmHg 71%
    16:00 +1°C° 0.1 mm 4 mps 743 mmHg 73%
    17:00 +1°C° 0 mm 4 mps 743 mmHg 75%
    18:00 +1°C° 0 mm 4 mps 743 mmHg 77%
    19:00 0°C° 0 mm 4 mps 743 mmHg 79%
    20:00 0°C° 0 mm 4 mps 743 mmHg 81%
    21:00 0°C° 0 mm 4 mps 743 mmHg 83%
    22:00 -1°C° 0 mm 4 mps 743 mmHg 84%
    23:00 -1°C° 0 mm 4 mps 743 mmHg 86%

    Tomorrow, 11 December, Tuesday

    Time Temperature Precipitation Wind Pressure Humidity
    00:00 -1°C° 0 mm 4 mps 743 mmHg 87%
    01:00 -1°C° 0 mm 4 mps 744 mmHg 89%
    02:00 -1°C° 0.2 mm 4 mps 744 mmHg 89%
    03:00 -1°C° 0.2 mm 4 mps 744 mmHg 89%
    04:00 0°C° 0.2 mm 3 mps 743 mmHg 90%
    05:00 0°C° 0.3 mm 3 mps 744 mmHg 90%
    06:00 0°C° 0.3 mm 3 mps 744 mmHg 90%
    07:00 0°C° 0.3 mm 3 mps 744 mmHg 91%
    08:00 +2°C° 0.1 mm 2 mps 744 mmHg 91%
    09:00 +2°C° 0.1 mm 2 mps 745 mmHg 91%
    10:00 +2°C° 0.1 mm 2 mps 745 mmHg 90%
    11:00 +2°C° 0.1 mm 2 mps 746 mmHg 90%
    12:00 +2°C° 0.1 mm 2 mps 746 mmHg 89%
    13:00 +3°C° 0.1 mm 2 mps 746 mmHg 89%
    14:00 +2°C° 0.2 mm 2 mps 747 mmHg 90%
    15:00 +2°C° 0.2 mm 2 mps 747 mmHg 91%
    16:00 +2°C° 0.2 mm 2 mps 748 mmHg 93%
    17:00 0°C° 0.2 mm 3 mps 748 mmHg 93%
    18:00 0°C° 0.2 mm 3 mps 749 mmHg 93%
    19:00 0°C° 0.2 mm 3 mps 749 mmHg 93%
    20:00 0°C° 0.2 mm 3 mps 750 mmHg 92%
    21:00 -1°C° 0.2 mm 3 mps 750 mmHg 92%
    22:00 -1°C° 0.2 mm 3 mps 751 mmHg 92%
    23:00 -1°C° 0 mm 3 mps 751 mmHg 92%

    Day after tomorrow, 12 December, Wednesday

    Time Temperature Precipitation Wind Pressure Humidity
    00:00 -2°C° 0 mm 3 mps 752 mmHg 92%
    01:00 -2°C° 0 mm 3 mps 752 mmHg 92%
    02:00 -2°C° 0 mm 2 mps 752 mmHg 91%
    03:00 -2°C° 0 mm 2 mps 752 mmHg 91%
    04:00 -2°C° 0 mm 2 mps 753 mmHg 91%
    05:00 -2°C° 0 mm 2 mps 753 mmHg 91%
    06:00 -2°C° 0 mm 2 mps 754 mmHg 90%
    07:00 -2°C° 0 mm 2 mps 754 mmHg 90%
    08:00 -1°C° 0 mm 2 mps 754 mmHg 89%
    09:00 -1°C° 0 mm 2 mps 755 mmHg 87%
    10:00 -1°C° 0 mm 2 mps 755 mmHg 86%
    11:00 +2°C° 0 mm 1 mps 755 mmHg 85%
    12:00 +2°C° 0 mm 1 mps 755 mmHg 84%
    13:00 +2°C° 0 mm 1 mps 755 mmHg 83%
    14:00 +1°C° 0 mm 2 mps 755 mmHg 86%
    15:00 -1°C° 0 mm 2 mps 755 mmHg 88%
    16:00 -2°C° 0 mm 2 mps 756 mmHg 91%
    17:00 -2°C° 0 mm 2 mps 756 mmHg 92%
    18:00 -2°C° 0 mm 2 mps 756 mmHg 93%
    19:00 -2°C° 0 mm 2 mps 756 mmHg 93%
    20:00 -2°C° 0 mm 2 mps 756 mmHg 93%
    21:00 -2°C° 0 mm 3 mps 756 mmHg 92%
    22:00 -2°C° 0 mm 3 mps 756 mmHg 92%
    23:00 -2°C° 0 mm 3 mps 756 mmHg 90%

    13 December, Thursday

    Time Temperature Precipitation Wind Pressure Humidity
    00:00 -2°C° 0 mm 3 mps 756 mmHg 89%
    01:00 -1°C° 0 mm 3 mps 756 mmHg 87%
    02:00 -1°C° 0 mm 3 mps 756 mmHg 88%
    03:00 -1°C° 0 mm 3 mps 755 mmHg 88%
    04:00 -2°C° 0 mm 3 mps 755 mmHg 89%
    05:00 -1°C° 0 mm 3 mps 755 mmHg 88%
    06:00 -1°C° 0 mm 3 mps 755 mmHg 87%
    07:00 -1°C° 0 mm 3 mps 755 mmHg 86%
    08:00 -2°C° 0 mm 4 mps 754 mmHg 84%
    09:00 -2°C° 0 mm 4 mps 754 mmHg 82%
    10:00 -2°C° 0 mm 4 mps 754 mmHg 80%
    11:00 -2°C° 0 mm 4 mps 754 mmHg 79%
    12:00 -1°C° 0 mm 4 mps 754 mmHg 78%
    13:00 -1°C° 0 mm 4 mps 754 mmHg 77%
    14:00 -2°C° 0 mm 4 mps 754 mmHg 79%
    15:00 -1°C° 0 mm 3 mps 754 mmHg 82%
    16:00 -2°C° 0 mm 3 mps 754 mmHg 84%
    17:00 -2°C° 0 mm 3 mps 754 mmHg 86%
    18:00 -2°C° 0 mm 3 mps 754 mmHg 87%
    19:00 -2°C° 0 mm 2 mps 754 mmHg 89%
    20:00 -2°C° 0 mm 2 mps 755 mmHg 89%
    21:00 -2°C° 0 mm 2 mps 755 mmHg 89%
    22:00 -2°C° 0 mm 2 mps 755 mmHg 90%
    23:00 -2°C° 0 mm 2 mps 755 mmHg 90%

    14 December, Friday

    Time Temperature Precipitation Wind Pressure Humidity
    00:00 -2°C° 0 mm 2 mps 756 mmHg 90%
    01:00 -1°C° 0 mm 2 mps 756 mmHg 91%
    02:00 -2°C° 0 mm 2 mps 756 mmHg 92%
    03:00 -2°C° 0 mm 2 mps 756 mmHg 93%
    04:00 -2°C° 0 mm 2 mps 757 mmHg 94%
    05:00 -2°C° 0 mm 2 mps 757 mmHg 93%
    06:00 -2°C° 0 mm 2 mps 757 mmHg 93%
    07:00 -2°C° 0 mm 2 mps 758 mmHg 92%
    08:00 -1°C° 0 mm 2 mps 758 mmHg 91%
    09:00 -1°C° 0 mm 2 mps 759 mmHg 90%
    10:00 -1°C° 0 mm 2 mps 760 mmHg 88%
    11:00 -1°C° 0 mm 2 mps 760 mmHg 88%
    12:00 +1°C° 0 mm 2 mps 760 mmHg 87%
    13:00 +1°C° 0 mm 2 mps 760 mmHg 86%
    14:00 +1°C° 0 mm 2 mps 761 mmHg 87%
    15:00 -1°C° 0 mm 2 mps 761 mmHg 89%
    16:00 -1°C° 0 mm 2 mps 761 mmHg 90%
    17:00 -1°C° 0 mm 2 mps 762 mmHg 90%
    18:00 -1°C° 0 mm 2 mps 762 mmHg 90%
    19:00 -1°C° 0 mm 2 mps 763 mmHg 91%
    20:00 -1°C° 0 mm 2 mps 763 mmHg 91%
    21:00 -1°C° 0 mm 2 mps 763 mmHg 91%
    22:00 -1°C° 0 mm 2 mps 763 mmHg 91%
    23:00 -1°C° 0 mm 2 mps 763 mmHg 91%

    15 December, Saturday

    Time Temperature Precipitation Wind Pressure Humidity
    00:00 -1°C° 0 mm 2 mps 764 mmHg 91%
    01:00 -1°C° 0 mm 2 mps 764 mmHg 91%
    02:00 -1°C° 0 mm 2 mps 764 mmHg 91%
    03:00 -1°C° 0 mm 2 mps 764 mmHg 91%
    04:00 -1°C° 0 mm 2 mps 764 mmHg 91%
    05:00 -1°C° 0 mm 2 mps 765 mmHg 91%
    06:00 -1°C° 0 mm 2 mps 765 mmHg 91%
    07:00 -2°C° 0 mm 2 mps 765 mmHg 90%
    08:00 -1°C° 0 mm 2 mps 766 mmHg 89%
    09:00 -1°C° 0 mm 2 mps 766 mmHg 88%
    10:00 -1°C° 0 mm 2 mps 766 mmHg 87%
    11:00 -1°C° 0 mm 2 mps 766 mmHg 86%
    12:00 -1°C° 0 mm 2 mps 766 mmHg 85%
    13:00 +1°C° 0 mm 2 mps 766 mmHg 84%
    14:00 -1°C° 0 mm 2 mps 766 mmHg 87%
    15:00 -2°C° 0 mm 2 mps 766 mmHg 89%
    16:00 -2°C° 0 mm 2 mps 767 mmHg 91%
    17:00 -3°C° 0 mm 2 mps 767 mmHg 92%
    18:00 -3°C° 0 mm 2 mps 766 mmHg 92%
    19:00 -3°C° 0 mm 2 mps 766 mmHg 92%
    20:00 -4°C° 0 mm 3 mps 766 mmHg 92%
    21:00 -4°C° 0 mm 3 mps 766 mmHg 92%
    22:00 -4°C° 0 mm 3 mps 766 mmHg 92%
    23:00 -4°C° 0 mm 3 mps 766 mmHg 92%
    Show more